Weather Roundup
Issued by NWS Springfield, MO

Home | Current Version | Previous Version | Text Only | Print | Product List | Glossary On
Versions: 1 2 3 4 5 6 7 8 9 10 11 12 13 14 15 16 17 18 19 20 21 22 23 24 25 26 27 28 29 30 31 32 33 34 35 36 37 38 39 40 41 42 43 44 45 46 47 48 49 50
000
NZUS99 KSGF 301107
HRRSGF

HOURLY WEATHER
NATIONAL WEATHER SERVICE SPRINGFIELD MO
600 AM CDT SAT APR 30 2016

......SGF CWA......

CITY           SKY/WX    TMP DP  RH WIND       PRES   REMARKS
SPRINGFIELD    CLOUDY    63  59  87 S9        29.67R
JOPLIN         CLOUDY    62  60  93 S9        29.64S
WEST PLAINS    LGT RAIN  60  57  89 SE7       29.73F
ROLLA          CLOUDY    58  57  97 E12       29.67F
OSAGE BEACH    CLOUDY    59  50  72 E6        29.69R

......SURROUNDING SGF CWA......

CITY           SKY/WX    TMP DP  RH WIND       PRES   REMARKS
CHANUTE        CLOUDY    61  59  93 S5        29.62F
PARSONS        CLOUDY    63  62  97 SW8       29.64S
COFFEYVILLE    CLOUDY    63  61  93 SW8       29.64S
EMPORIA        CLOUDY    54  52  93 W10       29.63R
GROVE OK       CLOUDY    61  61 100 S6        29.68R FOG
ROGERS AR      CLOUDY    61  59  93 S6        29.70R
SILOAM SPRINGS CLOUDY    61  54  77 S6        29.70R
HARRISON AR    CLOUDY    62  61  96 SE10      29.68S
NEAR YELLVILLE CLOUDY   N/A N/A N/A S3        29.67S

......KANSAS AND MISSOURI......

CITY           SKY/WX    TMP DP  RH WIND       PRES   REMARKS
KANSAS CTY INT CLOUDY    56  54  93 E7        29.63F
DOWNTOWN KC    LGT RAIN  58  56  93 NE5       29.63F
COLUMBIA       LGT RAIN  58  56  93 E16G24    29.69F FOG
SEDALIA        CLOUDY    60  58  92 SE8       29.69R
ST JOSEPH      TSTM      51  50  96 E14       29.66S FOG
ST LOUIS       LGT RAIN  59  56  89 E13       29.82F FOG
SPIRIT OF STL  LGT RAIN  58  57  97 E9        29.78F
KIRKSVILLE     CLOUDY    50  47  89 E16G23    29.76F FOG
WICHITA        CLOUDY    51  49  92 NW8       29.68S
TOPEKA         LGT RAIN  55  54  96 NE5       29.62F FOG
OLATHE         CLOUDY    58  57  97 SE13G18   29.64F

......TENNESSEE......

CITY           SKY/WX    TMP DP  RH WIND       PRES   REMARKS
MEMPHIS        CLOUDY    66  62  87 SE9       29.81F
NASHVILLE      LGT RAIN  64  60  87 CALM      29.89F

......ARKANSAS.......

CITY           SKY/WX    TMP DP  RH WIND       PRES   REMARKS
FAYETTEVILLE   CLOUDY    62  61  96 S12       29.69S
FT SMITH       CLOUDY    65  61  87 CALM      29.69R
LITTLE ROCK    LGT RAIN  65  61  87 S21G26    29.80F FOG

......OKLAHOMA.......

CITY           SKY/WX    TMP DP  RH WIND       PRES   REMARKS
TULSA          CLOUDY    60  58  92 W14       29.66R
PONCA CITY     CLOUDY    51  48  89 W7        29.71S
MCALESTER      CLOUDY    63  61  93 CALM      29.71R FOG
OKLAHOMA CITY  CLOUDY    49  48  97 NW14      29.76R

......IOWA............

CITY           SKY/WX    TMP DP  RH WIND       PRES   REMARKS
DES MOINES     LGT RAIN  46  42  86 E15G29    29.82F FOG
QUAD CITIES    CLOUDY    46  42  86 E14       29.95F FOG

......ILLINOIS........

CITY           SKY/WX    TMP DP  RH WIND       PRES   REMARKS
QUINCY         LGT RAIN  50  48  93 E16       29.82F FOG
CHICAGO        CLOUDY    45  41  86 E8        30.06R




USA.gov is the U.S. government's official web portal to all federal, state and local government web resources and services.